Location: *
(44.1392°N, 4.8079°E)
Time: 08:35:34
(UTC+00:00)

GPS 2-04 Rocket1 - Pass Details

Date: 21 June 2021
Orbit: 415 x 539 km, 35.6° (Epoch: 31 July)

Event Time Altitude Azimuth Distance (km) Brightness Sun altitude
Exits shadow 03:21:53 - 247° (WSW) 2,030 5.1 -5.9°
Reaches altitude 10° 03:22:56 10° 238° (WSW) 1,719 4.7 -5.7°
Maximum altitude 03:25:33 17° 196° (SSW) 1,311 4.3 -5.4°
Drops below altitude 10° 03:28:06 10° 154° (SSE) 1,667 5.1 -5.0°
Sets 03:30:48 0° 134° (SE) 2,516 6.3 -4.6°
